Location: Home
(42.5358°N, 72.7383°W)
Time: 16:59:35
(UTC-05:00)

A-11 Canister half - Pass Details

Date: 04 December 2021
Orbit: 1516 x 1684 km, 47.2° (Epoch: 18 January)

Event Time Altitude Azimuth Distance (km) Brightness Sun altitude
Rises 08:09:09 0° 256° (WSW) 4,775 11.3 8.8°
Reaches altitude 10° 08:12:13 10° 258° (WSW) 3,813 10.8 9.2°
Maximum altitude 08:22:01 76° 344° (NNW) 1,685 9.3 10.6°
Drops below altitude 10° 08:32:09 10° 71° (ENE) 3,935 11.5 11.9°
Sets 08:35:22 0° 73° (ENE) 4,933 12.0 12.3°
